Las Vegas, NV

12:35 PM PDT on March 29, 2017 (GMT -0700)
Las Vegas

Weather History for KBJN - October, 2012

Change the Weather History Date:

Friday, October 19, 2012

  Actual Average (KTPH) Record (KTPH)
Temperature  
Mean Temperature 55 °F -  
Max Temperature 73 °F 67 °F 80 °F (1958)
Min Temperature 37 °F 36 °F 23 °F (1971)
Degree Days  
Heating Degree Days 10    
Growing Degree Days 5 (Base 50)    
Moisture  
Dew Point 24 °F    
Average Humidity 33    
Maximum Humidity 62    
Minimum Humidity 14    
Precipitation  
Precipitation 0.00 in - - ()
Sea Level Pressure  
Sea Level Pressure 29.70 in    
Wind  
Wind Speed 5 mph (West)    
Max Wind Speed 13 mph    
Max Gust Speed -    
Visibility 10 miles    
Events      
Averages and records for this station are not official NWS values.
T = Trace of Precipitation, MM = Missing Value Source: NWS Daily Summary

Daily Weather History Graph

Daily Weather History Graph

Search for Another Location

Airport or City:

Trip Planner

Search our weather history database for the weather conditions in past years. The results will help you decide how hot, cold, wet, or windy it might be!

Date:

Astronomy

Oct. 19, 2012 Rise Set
Actual Time 6:57 AM PDT 6:01 PM PDT
Civil Twilight 6:31 AM PDT 6:28 PM PDT
Nautical Twilight 6:00 AM PDT 6:58 PM PDT
Astronomical Twilight 5:30 AM PDT 7:28 PM PDT
Moon 11:40 AM PDT (10/19) 9:48 PM PDT (10/19)
Length of Visible Light 11h 56m
Length of Day
11h 03m
Waxing Crescent, 24% of the Moon is Illuminated
Oct 19
Waxing Crescent
Oct 21
First Quarter
Oct 29
Full
Nov 6
Last Quarter
Nov 13
New

Hourly Weather History & Observations

Time (PDT) Temp. Windchill Dew Point Humidity Pressure Visibility Wind Dir Wind Speed Gust Speed Precip Events Conditions
12:56 AM 42.1 °F 38.4 °F 24.1 °F 49% 29.79 in 10.0 mi WNW 5.8 mph - N/A   Clear
1:56 AM 42.1 °F 37.1 °F 24.1 °F 49% 29.79 in 10.0 mi WNW 8.1 mph - N/A   Clear
2:56 AM 42.1 °F 37.7 °F 24.1 °F 49% 29.77 in 10.0 mi NW 6.9 mph - N/A   Clear
3:56 AM 39.9 °F 37.8 °F 24.1 °F 53% 29.76 in 10.0 mi NNW 3.5 mph - N/A   Clear
4:56 AM 37.9 °F - 25.0 °F 60% 29.77 in 10.0 mi Calm Calm - N/A   Clear
5:56 AM 37.0 °F 34.5 °F 25.0 °F 62% 29.79 in 10.0 mi WNW 3.5 mph - N/A   Clear
6:56 AM 43.0 °F 36.4 °F 23.0 °F 45% 29.80 in 10.0 mi NW 12.7 mph - N/A   Clear
7:56 AM 48.9 °F - 26.1 °F 41% 29.79 in 10.0 mi Calm Calm - N/A   Clear
8:56 AM 53.1 °F - 25.0 °F 34% 29.80 in 10.0 mi Calm Calm - N/A   Clear
9:56 AM 57.9 °F - 24.1 °F 27% 29.78 in 10.0 mi Calm Calm - N/A   Clear
10:56 AM 61.0 °F - 28.0 °F 29% 29.77 in 10.0 mi Calm Calm - N/A   Clear
11:56 AM 64.0 °F - 27.0 °F 25% 29.74 in 10.0 mi SSE 4.6 mph - N/A   Clear
12:56 PM 69.1 °F - 25.0 °F 19% 29.70 in 10.0 mi South 6.9 mph - N/A   Clear
1:56 PM 72.0 °F - 23.0 °F 16% 29.66 in 10.0 mi WSW 8.1 mph - N/A   Clear
2:56 PM 73.0 °F - 24.1 °F 16% 29.63 in 10.0 mi West 10.4 mph - N/A   Clear
3:56 PM 73.0 °F - 21.0 °F 14% 29.62 in 10.0 mi WNW 4.6 mph - N/A   Clear
4:56 PM 72.0 °F - 21.9 °F 15% 29.62 in 10.0 mi WNW 5.8 mph - N/A   Clear
5:56 PM 64.9 °F - 27.0 °F 24% 29.64 in 10.0 mi WSW 6.9 mph - N/A   Clear
6:56 PM 54.0 °F - 28.9 °F 38% 29.65 in 10.0 mi NW 6.9 mph - N/A   Clear
7:56 PM 57.0 °F - 26.1 °F 30% 29.62 in 10.0 mi WSW 9.2 mph - N/A   Clear
8:56 PM 57.9 °F - 21.9 °F 25% 29.60 in 10.0 mi West 12.7 mph - N/A   Clear
9:56 PM 59.0 °F - 21.0 °F 23% 29.59 in 10.0 mi WSW 5.8 mph - N/A   Clear
10:56 PM 52.0 °F - 23.0 °F 32% 29.59 in 10.0 mi WNW 5.8 mph - N/A   Clear
11:56 PM 55.0 °F - 19.9 °F 25% 29.56 in 10.0 mi West 4.6 mph - N/A   Clear